FENGYUN 1C DEB, 32350

Orbit data source: Space-Track

FENGYUN 1C DEB, 32350 is space debris in SSO originally from a launch on Mon, 10 May 1999 UTC launched from the Taiyaun Space Center, China (TSC). Fengyun 1C debris stems from the Chinese weather satellite Fengyun-1C, which was intentionally destroyed by a Chinese anti-satellite missile in 2007. This event dramatically increased the amount of space debris, with thousands of trackable fragments posing hazards to satellites and human spaceflight. The Fengyun 1C debris cloud has become a focal point in discussions about space sustainability and the need for international regulations to prevent the creation of new debris.

Loading next visibility...
Identifier
32350, 1999-025CYT
Orbit
SSO
Country
Flag of CNCN / PRC
Related business
Manufacturer
Unknown
Mission
Spacecraft
Bus & Motor
Unknown
Mass
Unknown
Launch date (UTC)
1999-05-10 (27 years ago)
Launch vehicle
Unknown
Launch site
Taiyaun Space Center, China (TSC)
Object type
Payload
Rocket body
Debris
Shape & HBR
Unknown shape, 0.1 m
Radar Cross Section
Small (<0.1 m²)

Expand to show TLE details & history
Last TLE update: 1 day ago

TLE from 1 day ago
0 FENGYUN 1C DEB
1 32350U 99025CYT 26171.38705597  .00003925  00000-0  58721-3 0  9994
2 32350  98.2007 217.7244 0263046  72.7626 290.2177 14.54462017  2632
Epoch: 2026-06-20T09:17Z
TLE epoch observation values (Epoch: 2026-06-20T09:17:21.635Z)
Latitude
-0.00003°
Longitude
169.78185°
Altitude
654.011 km
Speed
7.562 km/s
True Right ascension
14h 30m 53s
True Declination
0° 00' 00"
Sunlit
Object was in full shadow at epoch
Visualization orbit readout
Latitude
Unknown
Longitude
Unknown
Altitude
Unknown
Speed
Unknown
Apparent Right ascension
Unknown
Apparent Declination
Unknown
Sunlit
N/A
Visualization observer readout
Local Sidereal Time
22:13:37
Azimuth
Unknown
Elevation
Unknown
Doppler factor
Unknown
Orbital elements
Apogee altitude
894.601 km
Perigee altitude
521.795 km
Semi-major axis
7,086.335 km
Eccentricity
0.0263
Inclination
98.2007°
RAAN
217.7244°
Arg. of periapsis
72.7626°
True anomaly
287.35783°
Mean anomaly
290.2177°
Eccentric anomaly
288.79089°
Mean motion
3.6384 °/min
Orbital period
98.94 mins
BSTAR
0.00058721
Loading maneuver chart data...
Computing Atmospheric mass density...

Documentation

Showing up to 5 results
|